KESTREL-0A

Satellite information

Favourite Embed

Satellite Type and Status

PAYLOADIN ORBIT

Key statistics

Satellite KESTREL-0A at a glance.

Uptime

22

Days in orbit

Revolutions

≈ 15.2

Per day

Orbit

SSO

Sun Synchronous Orbit

Inclination

97.4

Latest

Satellite identification and parameters

Extended collection of information and parameters for KESTREL-0A.

Object identification

Identified? True

Debris? False

Object name: KESTREL-0A

International designator: 2025-138D

Object number (NORAD): 64624

Object ID (CCSDS): 64624

Country: UNITED STATES OF AMERICA (US)

Current information (Y/N): Y

RCS size: MEDIUM

Orbital parameters

Period: 95.029 minutes

Inclination: 97.4365 deg

SMA: 6898.145 km

Apoapsis: 530.614 km

Periapsis: 509.405 km

RAAN: 203.1246 deg

Eccentricy: 0.0015373

Argument of periapsis: 206.0382 deg

Mean anomaly: 154.0079 deg

Mean motion: 15.15319892 rev/day

Mean motion (dot): 0.00001724 rev/day2

B* drag term: 0.00009478 1/REarth

Two-line elements (TLE)

Creation date: July 18, 2025, 2:44 a.m.

Reference frame: TEME

Reference center: EARTH

Epoch: July 17, 2025, 10:53 p.m. UTC

TLE line 0: 0 KESTREL-0A

TLE line 1: 1 64624U 25138D 25198.95395896 .00001724 00000-0 94780-4 0 9996

TLE line 2: 2 64624 97.4365 203.1246 0015373 206.0382 154.0079 15.15319892 3201

Live tracking on map

Real-time ground track for satellite KESTREL-0A.

In-orbit conjunctions

There are no conjunctions computed for KESTREL-0A, at the moment. Check back to stay up to date, as we update our databases every day.

Go to all conjunctions

Associated space launch

HawkEye 360 is a a space-based civil global intelligence satellite network using radio frequency (RF) technology to help monitor transportation across air, land and sea and assist with emergencies, and to provide civil SIGINT (Signal Intelligence) mission. The constellation of small satellites (named Hawk) will collect information on specific radio signals worldwide to provide high-precision radio frequency mapping and analytics from Low Earth orbit (LEO). 3 of the satellites will comprise HawkEye 360’s Cluster 12 and will operate in a dawn-to-dusk polar orbit, while the 4th is Kestrel-0A, an experimental satellite designed to evaluate emerging capabilities and future technology enhancements.

KESTREL-0A was lifted into orbit during the mission ‘Electron | Get The Hawk Outta Here (4x HawkEye 360)’, on board a Electron space rocket.

The launch took place on June 26, 2025, 5:28 p.m. from Rocket Lab Launch Complex 1A.

For more information about the launch, click the button.

Launch to space Electron | Get The Hawk Outta Here (4x HawkEye 360)
Electron | Get The Hawk Outta Here (4x HawkEye 360)

Agency: HawkEye 360

Status: Launch Successful

Launch date: June 26, 2025, 5:28 p.m. UTC

Rocket: Electron

Launch pad: Rocket Lab Launch Complex 1A

Location: Rocket Lab Launch Complex 1, Mahia Peninsula, New Zealand

...

Latest news about this satellite

News about space launch
Rocket Report: Japan’s workhorse booster takes a bow; you can invest in SpaceX now

"We will be able to industrialize Zephyr production up to 50 units per year."

News about space launch
Rocket Lab launches HawkEye 360 satellites

Rocket Lab launched a set of satellites for HawkEye 360 June 26 in the first of back-to-back launches from its New Zealand launch site. The post Rocket Lab launches HawkEye 360 satellites appeared first on SpaceNews.

News about space launch
Launch Roundup: Launch manifest remains busy as 2025’s halfway point approaches

With summer and winter for the Northern and Southern Hemispheres now in full swing, the… The post Launch Roundup: Launch manifest remains busy as 2025’s halfway point approaches appeared first on NASASpaceFlight.com.


Newsletter sign-up

Weekly statistics, charts and insights to help you stay on top of the space industry.